Las Cruces, NM

5:57 PM MDT on August 22, 2017 (GMT -0600)
Las Cruces International

Weather History for KLRU - September, 2013

Change the Weather History Date:

Friday, September 6, 2013

  Actual Average Record
Temperature  
Mean Temperature 80 °F -  
Max Temperature 91 °F 87 °F 95 °F (2002)
Min Temperature 68 °F 64 °F 60 °F (2006)
Cooling Degree Days 14    
Growing Degree Days 30 (Base 50)    
Moisture  
Dew Point 49 °F    
Average Humidity 35    
Maximum Humidity 55    
Minimum Humidity 21    
Precipitation  
Precipitation 0.00 in - - ()
Sea Level Pressure  
Sea Level Pressure 30.18 in    
Wind  
Wind Speed 5 mph (East)    
Max Wind Speed 17 mph    
Max Gust Speed 21 mph    
Visibility 10 miles    
Events Thunderstorm    
Averages and records for this station are not official NWS values.
T = Trace of Precipitation, MM = Missing Value Source: NWS Daily Summary

Daily Weather History Graph

Daily Weather History Graph

Search for Another Location

Airport or City:

Trip Planner

Search our weather history database for the weather conditions in past years. The results will help you decide how hot, cold, wet, or windy it might be!

Date:

Astronomy

Sep. 06, 2013 Rise Set
Actual Time 6:46 AM MDT 7:25 PM MDT
Civil Twilight 6:21 AM MDT 7:49 PM MDT
Nautical Twilight 5:52 AM MDT 8:19 PM MDT
Astronomical Twilight 5:22 AM MDT 8:48 PM MDT
Moon 7:53 AM MDT (9/6) 8:00 PM MDT (9/6)
Length of Visible Light 13h 28m
Length of Day
12h 39m
New Moon, 2% of the Moon is Illuminated
Sep 6
New Moon
Sep 12
First Quarter
Sep 19
Full
Sep 26
Last Quarter
Oct 4
New

Hourly Weather History & Observations

Time (MDT) Temp. Dew Point Humidity Pressure Visibility Wind Dir Wind Speed Gust Speed Precip Events Conditions
12:15 AM 75.2 °F 38.8 °F 27% 30.21 in 10.0 mi ESE 4.6 mph - N/A   Clear
12:35 AM 72.3 °F 39.2 °F 30% 30.21 in 10.0 mi NE 3.5 mph - N/A   Clear
12:55 AM 72.3 °F 39.6 °F 30% 30.21 in 10.0 mi Calm Calm - N/A   Clear
1:15 AM 70.7 °F 40.1 °F 33% 30.21 in 10.0 mi Calm Calm - N/A   Clear
1:35 AM 68.9 °F 40.1 °F 35% 30.21 in 10.0 mi Calm Calm - N/A   Clear
1:55 AM 71.4 °F 42.3 °F 35% 30.21 in 10.0 mi East 3.5 mph - N/A   Clear
2:15 AM 72.7 °F 46.0 °F 39% 30.21 in 10.0 mi East 3.5 mph - N/A   Clear
2:35 AM 73.4 °F 48.0 °F 41% 30.20 in 10.0 mi East 4.6 mph - N/A   Clear
2:55 AM 73.0 °F 48.6 °F 42% 30.21 in 10.0 mi East 3.5 mph - N/A   Clear
3:15 AM 72.5 °F 49.3 °F 44% 30.20 in 10.0 mi East 4.6 mph - N/A   Clear
3:35 AM 73.8 °F 50.4 °F 44% 30.20 in 10.0 mi SE 4.6 mph - N/A   Clear
3:55 AM 71.8 °F 50.5 °F 47% 30.20 in 10.0 mi ESE 3.5 mph - N/A   Clear
4:15 AM 71.1 °F 50.7 °F 49% 30.20 in 10.0 mi ESE 4.6 mph - N/A   Clear
4:35 AM 70.5 °F 50.9 °F 50% 30.20 in 10.0 mi East 3.5 mph - N/A   Clear
4:55 AM 70.9 °F 51.3 °F 50% 30.20 in 10.0 mi East 3.5 mph - N/A   Clear
5:15 AM 69.3 °F 51.3 °F 53% 30.20 in 10.0 mi East 4.6 mph - N/A   Clear
5:35 AM 70.9 °F 51.8 °F 51% 30.21 in 10.0 mi East 3.5 mph - N/A   Clear
5:55 AM 69.3 °F 51.8 °F 54% 30.21 in 10.0 mi East 4.6 mph - N/A   Clear
6:15 AM 69.8 °F 52.2 °F 53% 30.21 in 10.0 mi East 3.5 mph - N/A   Clear
6:35 AM 69.8 °F 52.5 °F 54% 30.21 in 10.0 mi ESE 3.5 mph - N/A   Clear
6:55 AM 69.3 °F 52.0 °F 54% 30.21 in 10.0 mi East 4.6 mph - N/A   Clear
7:15 AM 70.0 °F 53.1 °F 55% 30.22 in 10.0 mi East 3.5 mph - N/A   Clear
7:35 AM 71.8 °F 54.1 °F 54% 30.23 in 10.0 mi East 3.5 mph - N/A   Clear
7:55 AM 74.5 °F 53.6 °F 48% 30.23 in 10.0 mi ESE 3.5 mph - N/A   Clear
8:15 AM 76.3 °F 53.2 °F 45% 30.24 in 10.0 mi East 4.6 mph - N/A   Clear
8:35 AM 77.7 °F 52.7 °F 42% 30.24 in 10.0 mi East 3.5 mph - N/A   Clear
8:55 AM 78.3 °F 52.2 °F 40% 30.25 in 10.0 mi East 5.8 mph - N/A   Clear
9:15 AM 79.3 °F 51.8 °F 38% 30.25 in 10.0 mi East 4.6 mph - N/A   Clear
9:35 AM 80.1 °F 50.9 °F 36% 30.25 in 10.0 mi East 4.6 mph - N/A   Clear
9:55 AM 81.3 °F 50.9 °F 35% 30.26 in 10.0 mi East 3.5 mph - N/A   Clear
10:15 AM 81.1 °F 50.9 °F 35% 30.26 in 10.0 mi SE 4.6 mph - N/A   Clear
10:35 AM 83.8 °F 51.3 °F 32% 30.25 in 10.0 mi ESE 5.8 mph - N/A   Clear
10:55 AM 84.6 °F 50.2 °F 30% 30.25 in 10.0 mi ESE 5.8 mph - N/A   Clear
11:15 AM 85.6 °F 50.7 °F 30% 30.24 in 10.0 mi SE 8.1 mph - N/A   Clear
11:35 AM 86.7 °F 50.9 °F 29% 30.23 in 10.0 mi East 10.4 mph - N/A   Clear
11:55 AM 87.3 °F 50.9 °F 29% 30.23 in 10.0 mi SSE 8.1 mph - N/A   Clear
12:15 PM 87.3 °F 50.0 °F 28% 30.22 in 10.0 mi SE 6.9 mph 16.1 mph N/A   Clear
12:35 PM 88.9 °F 49.5 °F 26% 30.22 in 10.0 mi East 9.2 mph - N/A   Scattered Clouds
12:55 PM 86.7 °F 49.5 °F 28% 30.20 in 10.0 mi ESE 10.4 mph - N/A   Clear
1:15 PM 89.1 °F 49.3 °F 25% 30.19 in 10.0 mi ESE 9.2 mph - N/A   Clear
1:35 PM 89.8 °F 48.4 °F 24% 30.18 in 10.0 mi SSE 11.5 mph 16.1 mph N/A   Clear
1:55 PM 87.6 °F 46.9 °F 24% 30.18 in 10.0 mi ESE 9.2 mph - N/A   Clear
2:15 PM 90.7 °F 48.2 °F 23% 30.16 in 10.0 mi East 9.2 mph - N/A   Scattered Clouds
2:35 PM 90.5 °F 45.9 °F 21% 30.15 in 10.0 mi NNE 8.1 mph 16.1 mph N/A   Scattered Clouds
2:55 PM 90.9 °F 46.0 °F 21% 30.15 in 10.0 mi East 5.8 mph - N/A   Scattered Clouds
3:15 PM 91.4 °F 46.0 °F 21% 30.14 in 10.0 mi North 3.5 mph 16.1 mph N/A   Scattered Clouds
3:35 PM 88.2 °F 46.9 °F 24% 30.13 in 10.0 mi Calm Calm - N/A   Scattered Clouds
3:55 PM 89.2 °F 48.0 °F 24% 30.12 in 10.0 mi Calm Calm - N/A   Clear
4:15 PM 90.3 °F 48.7 °F 24% 30.11 in 10.0 mi ESE 6.9 mph - N/A   Clear
4:35 PM 90.0 °F 48.4 °F 24% 30.10 in 10.0 mi ESE 8.1 mph - N/A Thunderstorm Thunderstorm
4:55 PM 87.8 °F 50.7 °F 28% 30.10 in 10.0 mi NNE 17.3 mph - N/A   Scattered Clouds
5:15 PM 88.7 °F 48.6 °F 25% 30.09 in 10.0 mi NE 12.7 mph 17.3 mph N/A   Scattered Clouds
5:35 PM 89.1 °F 48.0 °F 24% 30.09 in 10.0 mi ENE 8.1 mph - N/A   Clear
5:55 PM 89.4 °F 47.8 °F 24% 30.09 in 10.0 mi ENE 8.1 mph - N/A   Clear
6:15 PM 88.9 °F 48.2 °F 25% 30.09 in 10.0 mi East 9.2 mph - N/A   Clear
6:35 PM 87.1 °F 48.6 °F 26% 30.09 in 10.0 mi SE 12.7 mph 20.7 mph N/A   Scattered Clouds
6:55 PM 86.9 °F 47.8 °F 26% 30.08 in 10.0 mi SE 6.9 mph - N/A   Clear
7:15 PM 85.5 °F 48.2 °F 27% 30.08 in 10.0 mi ESE 4.6 mph - N/A   Clear
7:35 PM 84.4 °F 48.2 °F 28% 30.09 in 10.0 mi East 3.5 mph - N/A   Clear
7:55 PM 83.3 °F 48.2 °F 29% 30.10 in 10.0 mi Calm Calm - N/A   Scattered Clouds
8:15 PM 82.4 °F 48.4 °F 30% 30.10 in 10.0 mi East 3.5 mph - N/A   Scattered Clouds
8:35 PM 80.2 °F 48.2 °F 32% 30.10 in 10.0 mi Calm Calm - N/A   Scattered Clouds
8:55 PM 79.7 °F 50.2 °F 36% 30.11 in 10.0 mi ENE 12.7 mph 17.3 mph N/A   Mostly Cloudy
9:15 PM 82.0 °F 50.0 °F 33% 30.12 in 10.0 mi East 8.1 mph - N/A   Overcast
9:35 PM 82.4 °F 48.6 °F 31% 30.12 in 10.0 mi NE 3.5 mph - N/A   Overcast
9:55 PM 82.2 °F 48.4 °F 31% 30.12 in 10.0 mi East 4.6 mph - N/A   Overcast
10:15 PM 81.7 °F 48.7 °F 32% 30.13 in 10.0 mi ENE 5.8 mph - N/A   Overcast
10:35 PM 80.8 °F 48.6 °F 32% 30.14 in 10.0 mi East 9.2 mph - N/A   Mostly Cloudy
10:55 PM 80.8 °F 48.9 °F 33% 30.14 in 10.0 mi East 5.8 mph - N/A   Scattered Clouds
11:15 PM 79.3 °F 49.6 °F 35% 30.15 in 10.0 mi ESE 6.9 mph - N/A   Clear
11:35 PM 79.2 °F 50.0 °F 36% 30.15 in 10.0 mi ESE 8.1 mph - N/A   Clear
11:55 PM 78.8 °F 50.7 °F 37% 30.15 in 10.0 mi ESE 8.1 mph - N/A   Clear